• în România
  • Lista ţărilor
  • Pe 7 zile
  • Temperatura apei
  • Hartă satelitară
  • Meteo pe hartă
  • Widget-uri
  • user-avatar
    Intrare

    Meteo pe oră la Kerns

    Astăzi, 15 Octombrie, Luni

    Timp Temperatura Precipitaţii Vânt Presiune Umiditate
    00:00 +26°C° 0 mm 2 m/s 760 mmHg 95%
    01:00 +26°C° 0 mm 2 m/s 760 mmHg 94%
    02:00 +26°C° 0.1 mm 2 m/s 760 mmHg 94%
    03:00 +26°C° 0.1 mm 2 m/s 760 mmHg 93%
    04:00 +26°C° 0 mm 2 m/s 760 mmHg 94%
    05:00 +26°C° 0.1 mm 2 m/s 760 mmHg 93%
    06:00 +27°C° 0.1 mm 2 m/s 760 mmHg 92%
    07:00 +27°C° 0.1 mm 2 m/s 760 mmHg 91%
    08:00 +28°C° 0.1 mm 2 m/s 760 mmHg 85%
    09:00 +29°C° 0.1 mm 3 m/s 761 mmHg 80%
    10:00 +31°C° 0 mm 2 m/s 761 mmHg 73%
    11:00 +32°C° 0 mm 2 m/s 760 mmHg 67%
    12:00 +34°C° 0 mm 3 m/s 760 mmHg 62%
    13:00 +35°C° 0 mm 3 m/s 759 mmHg 56%
    14:00 +35°C° 0.1 mm 3 m/s 759 mmHg 58%
    15:00 +34°C° 0.1 mm 3 m/s 758 mmHg 61%
    16:00 +34°C° 0.1 mm 3 m/s 758 mmHg 63%
    17:00 +31°C° 0 mm 3 m/s 758 mmHg 72%
    18:00 +29°C° 0 mm 2 m/s 758 mmHg 82%
    19:00 +27°C° 0 mm 2 m/s 759 mmHg 91%
    20:00 +27°C° 0 mm 2 m/s 759 mmHg 92%
    21:00 +27°C° 0 mm 2 m/s 760 mmHg 93%
    22:00 +26°C° 0 mm 2 m/s 760 mmHg 94%
    23:00 +26°C° 0 mm 2 m/s 760 mmHg 94%

    Mâine, 16 Octombrie, Marţi

    Timp Temperatura Precipitaţii Vânt Presiune Umiditate
    00:00 +26°C° 0 mm 2 m/s 760 mmHg 93%
    01:00 +26°C° 0 mm 2 m/s 760 mmHg 93%
    02:00 +26°C° 0 mm 2 m/s 759 mmHg 93%
    03:00 +25°C° 0 mm 2 m/s 759 mmHg 94%
    04:00 +25°C° 0 mm 2 m/s 759 mmHg 95%
    05:00 +26°C° 0 mm 1 m/s 759 mmHg 93%
    06:00 +26°C° 0 mm 1 m/s 760 mmHg 91%
    07:00 +26°C° 0 mm 1 m/s 760 mmHg 89%
    08:00 +29°C° 0 mm 1 m/s 760 mmHg 76%
    09:00 +31°C° 0 mm 1 m/s 761 mmHg 62%
    10:00 +34°C° 0 mm 1 m/s 761 mmHg 49%
    11:00 +34°C° 0 mm 1 m/s 760 mmHg 46%
    12:00 +36°C° 0 mm 2 m/s 760 mmHg 44%
    13:00 +36°C° 0 mm 2 m/s 759 mmHg 41%
    14:00 +36°C° 0.1 mm 2 m/s 759 mmHg 44%
    15:00 +35°C° 0.1 mm 2 m/s 758 mmHg 47%
    16:00 +34°C° 0.1 mm 3 m/s 757 mmHg 50%
    17:00 +31°C° 0.1 mm 2 m/s 758 mmHg 59%
    18:00 +29°C° 0.1 mm 2 m/s 758 mmHg 68%
    19:00 +27°C° 0.1 mm 2 m/s 758 mmHg 77%
    20:00 +26°C° 0.1 mm 2 m/s 759 mmHg 80%
    21:00 +26°C° 0.1 mm 1 m/s 759 mmHg 84%
    22:00 +25°C° 0.1 mm 1 m/s 759 mmHg 87%
    23:00 +25°C° 0.1 mm 1 m/s 759 mmHg 88%

    Poimâine, 17 Octombrie, Miercuri

    Timp Temperatura Precipitaţii Vânt Presiune Umiditate
    00:00 +25°C° 0.1 mm 1 m/s 759 mmHg 89%
    01:00 +22°C° 0.1 mm 0 m/s 759 mmHg 89%
    02:00 +24°C° 0.1 mm 1 m/s 759 mmHg 88%
    03:00 +25°C° 0.1 mm 1 m/s 759 mmHg 86%
    04:00 +25°C° 0.1 mm 2 m/s 759 mmHg 85%
    05:00 +25°C° 0.1 mm 2 m/s 759 mmHg 82%
    06:00 +25°C° 0.1 mm 1 m/s 759 mmHg 78%
    07:00 +26°C° 0.1 mm 1 m/s 760 mmHg 75%
    08:00 +27°C° 0 mm 1 m/s 760 mmHg 70%
    09:00 +28°C° 0 mm 1 m/s 760 mmHg 65%
    10:00 +30°C° 0 mm 2 m/s 760 mmHg 60%
    11:00 +32°C° 0 mm 2 m/s 759 mmHg 54%
    12:00 +35°C° 0 mm 2 m/s 759 mmHg 48%
    13:00 +37°C° 0 mm 3 m/s 758 mmHg 42%
    14:00 +35°C° 0.1 mm 3 m/s 758 mmHg 47%
    15:00 +34°C° 0.1 mm 3 m/s 757 mmHg 51%
    16:00 +33°C° 0.1 mm 3 m/s 757 mmHg 56%
    17:00 +30°C° 0 mm 3 m/s 757 mmHg 64%
    18:00 +28°C° 0 mm 2 m/s 758 mmHg 72%
    19:00 +26°C° 0 mm 2 m/s 758 mmHg 80%
    20:00 +26°C° 0 mm 2 m/s 759 mmHg 83%
    21:00 +25°C° 0 mm 1 m/s 759 mmHg 87%
    22:00 +25°C° 0 mm 1 m/s 760 mmHg 90%
    23:00 +24°C° 0 mm 1 m/s 759 mmHg 91%

    18 Octombrie, Joi

    Timp Temperatura Precipitaţii Vânt Presiune Umiditate
    00:00 +24°C° 0 mm 1 m/s 759 mmHg 91%
    01:00 +24°C° 0 mm 1 m/s 758 mmHg 92%
    02:00 +24°C° 0 mm 1 m/s 758 mmHg 91%
    03:00 +23°C° 0 mm 1 m/s 758 mmHg 91%
    04:00 +23°C° 0 mm 1 m/s 758 mmHg 90%
    05:00 +24°C° 0 mm 1 m/s 758 mmHg 87%
    06:00 +25°C° 0 mm 1 m/s 759 mmHg 83%
    07:00 +26°C° 0 mm 1 m/s 759 mmHg 80%
    08:00 +28°C° 0 mm 1 m/s 759 mmHg 69%
    09:00 +31°C° 0 mm 2 m/s 760 mmHg 58%
    10:00 +34°C° 0 mm 2 m/s 760 mmHg 47%
    11:00 +35°C° 0 mm 3 m/s 759 mmHg 45%
    12:00 +36°C° 0 mm 3 m/s 759 mmHg 42%
    13:00 +37°C° 0 mm 3 m/s 758 mmHg 39%
    14:00 +36°C° 0 mm 3 m/s 758 mmHg 43%
    15:00 +35°C° 0 mm 3 m/s 758 mmHg 46%
    16:00 +34°C° 0 mm 3 m/s 757 mmHg 50%
    17:00 +31°C° 0 mm 3 m/s 758 mmHg 59%
    18:00 +29°C° 0 mm 3 m/s 758 mmHg 69%
    19:00 +27°C° 0 mm 2 m/s 759 mmHg 78%
    20:00 +27°C° 0 mm 2 m/s 760 mmHg 82%
    21:00 +26°C° 0 mm 2 m/s 760 mmHg 85%
    22:00 +25°C° 0 mm 1 m/s 761 mmHg 89%
    23:00 +25°C° 0 mm 1 m/s 760 mmHg 91%

    19 Octombrie, Vineri

    Timp Temperatura Precipitaţii Vânt Presiune Umiditate
    00:00 +24°C° 0 mm 1 m/s 760 mmHg 93%
    01:00 +24°C° 0 mm 1 m/s 759 mmHg 94%
    02:00 +24°C° 0 mm 1 m/s 759 mmHg 94%
    03:00 +24°C° 0 mm 2 m/s 759 mmHg 94%
    04:00 +23°C° 0 mm 2 m/s 759 mmHg 95%
    05:00 +24°C° 0 mm 2 m/s 760 mmHg 89%
    06:00 +25°C° 0 mm 2 m/s 760 mmHg 84%
    07:00 +26°C° 0 mm 2 m/s 761 mmHg 79%
    08:00 +28°C° 0 mm 2 m/s 761 mmHg 68%
    09:00 +31°C° 0 mm 3 m/s 761 mmHg 58%
    10:00 +34°C° 0 mm 3 m/s 761 mmHg 47%
    11:00 +35°C° 0 mm 3 m/s 760 mmHg 44%
    12:00 +36°C° 0 mm 3 m/s 760 mmHg 41%
    13:00 +37°C° 0 mm 4 m/s 759 mmHg 38%
    14:00 +37°C° 0 mm 4 m/s 759 mmHg 40%
    15:00 +36°C° 0 mm 4 m/s 759 mmHg 42%
    16:00 +35°C° 0 mm 4 m/s 758 mmHg 44%
    17:00 +33°C° 0 mm 3 m/s 759 mmHg 56%
    18:00 +29°C° 0 mm 3 m/s 759 mmHg 68%
    19:00 +27°C° 0 mm 3 m/s 760 mmHg 79%
    20:00 +26°C° 0 mm 3 m/s 760 mmHg 84%
    21:00 +25°C° 0 mm 3 m/s 761 mmHg 89%
    22:00 +25°C° 0 mm 2 m/s 761 mmHg 94%
    23:00 +24°C° 0 mm 2 m/s 761 mmHg 94%

    20 Octombrie, Sâmbătă

    Timp Temperatura Precipitaţii Vânt Presiune Umiditate
    00:00 +24°C° 0 mm 2 m/s 760 mmHg 94%
    01:00 +24°C° 0 mm 2 m/s 760 mmHg 94%
    02:00 +23°C° 0 mm 2 m/s 760 mmHg 94%
    03:00 +23°C° 0 mm 2 m/s 759 mmHg 93%
    04:00 +23°C° 0 mm 2 m/s 759 mmHg 93%
    05:00 +24°C° 0 mm 2 m/s 760 mmHg 89%
    06:00 +24°C° 0 mm 2 m/s 761 mmHg 85%
    07:00 +25°C° 0 mm 3 m/s 761 mmHg 81%
    08:00 +28°C° 0 mm 3 m/s 761 mmHg 70%
    09:00 +30°C° 0 mm 3 m/s 761 mmHg 59%
    10:00 +34°C° 0 mm 3 m/s 761 mmHg 49%
    11:00 +35°C° 0 mm 3 m/s 761 mmHg 45%
    12:00 +36°C° 0 mm 4 m/s 760 mmHg 41%
    13:00 +37°C° 0 mm 4 m/s 760 mmHg 36%
    14:00 +36°C° 0 mm 4 m/s 759 mmHg 38%
    15:00 +36°C° 0 mm 4 m/s 759 mmHg 39%
    16:00 +35°C° 0 mm 4 m/s 759 mmHg 40%
    17:00 +33°C° 0 mm 3 m/s 759 mmHg 53%
    18:00 +29°C° 0 mm 3 m/s 760 mmHg 67%
    19:00 +26°C° 0 mm 3 m/s 761 mmHg 80%
    20:00 +26°C° 0 mm 3 m/s 761 mmHg 85%
    21:00 +25°C° 0 mm 3 m/s 761 mmHg 90%
    22:00 +24°C° 0 mm 3 m/s 762 mmHg 95%
    23:00 +24°C° 0 mm 3 m/s 761 mmHg 95%
    Arată mai mult